Quick search

Croatia

Notice ID Type City Main CPV Title Date
2021/S 075-192868 Contract award notice Zagreb 45112000 Excavating and earthmoving work 2021-04-19
2021/S 075-191660 Contract award notice Pula 33112200 Ultrasonic unit 2021-04-19
2021/S 075-191786 Additional information Zagreb 38423000 Pressure-measuring equipment 2021-04-19
2021/S 075-191658 Contract award notice Zagreb 44610000 Tanks, reservoirs, containers and pressure vessels 2021-04-19
2021/S 075-192678 Additional information Šibenik 60130000 Special-purpose road passenger-transport services 2021-04-19
2021/S 075-191657 Contract award notice Split 48000000 Software package and information systems 2021-04-19
2021/S 075-191781 Additional information Konjščina 34144511 Refuse-collection vehicles 2021-04-19
2021/S 075-192680 Additional information Zagreb 80500000 Training services 2021-04-19
2021/S 075-192682 Additional information Zagreb 50330000 Maintenance services of telecommunications equipment 2021-04-19
2021/S 075-192673 Additional information Zagreb 79950000 Public relations services 2021-04-19
2021/S 075-191779 Additional information Zagreb 42913000 Oil, petrol and air-intake filters 2021-04-19
2021/S 075-192681 Additional information Viškovo 90513100 Household-refuse disposal services 2021-04-19
2021/S 075-192672 Additional information Zagreb 79341000 Advertising services 2021-04-19
2021/S 075-190912 Additional information Zagreb 45233100 Construction work for highways, roads 2021-04-19
2021/S 075-192542 Contract award notice Zagreb 79620000 Supply services of personnel including temporary staff 2021-04-19
2021/S 075-192545 Contract award notice Split 72267100 Maintenance of information technology software 2021-04-19
2021/S 075-191782 Additional information Rijeka 42910000 Distilling, filtering or rectifying apparatus 2021-04-19
2021/S 075-192550 Contract award notice Zagreb 64221000 Interconnection services 2021-04-19
2021/S 075-191659 Contract award notice Zagreb 43300000 Construction machinery and equipment 2021-04-19
2021/S 074-190167 Contract award notice Zagreb 71323100 Electrical power systems design services 2021-04-16
2021/S 074-189934 Contract award notice Zagreb 14210000 Gravel, sand, crushed stone and aggregates 2021-04-16
2021/S 074-187251 Contract award notice Varaždin 33183100 Orthopaedic implants 2021-04-16
2021/S 074-187122 Contract award notice Zagreb 33698100 Microbiological cultures 2021-04-16
2021/S 074-187253 Contract award notice Zagreb 33186100 Oxygenator 2021-04-16
2021/S 074-187257 Contract award notice Zagreb 39520000 Made-up textile articles 2021-04-16
2021/S 074-187254 Contract award notice Zagreb 33141000 Disposable non-chemical medical consumables and haematological consumables 2021-04-16
2021/S 074-189935 Contract award notice Zagreb 31200000 Electricity distribution and control apparatus 2021-04-16
2021/S 074-188966 Contract award notice Zagreb 71320000 Engineering design services 2021-04-16
2021/S 074-187026 Contract award notice Zagreb 33696500 Laboratory reagents 2021-04-16
2021/S 074-187256 Contract award notice Split 33141000 Disposable non-chemical medical consumables and haematological consumables 2021-04-16
2021/S 074-187353 Contract award notice Osijek 33690000 Various medicinal products 2021-04-16
2021/S 074-187252 Contract award notice Zagreb 33141121 Surgical sutures 2021-04-16
2021/S 074-187036 Contract award notice Zagreb 38410000 Metering instruments 2021-04-16
2021/S 074-189786 Additional information Zagreb 45112500 Railway construction works 2021-04-16
2021/S 074-187068 Contract award notice Zagreb 38000000 Laboratory, optical and precision equipments (excl. glasses) 2021-04-16
2021/S 074-189376 Additional information Koprivnica 79410000 Business and management consultancy services 2021-04-16
2021/S 074-187461 Additional information Virovitica 43300000 Construction machinery and equipment 2021-04-16
2021/S 074-189787 Additional information Zagreb 45231300 Sewerage work 2021-04-16
2021/S 074-187416 Additional information Gospić 33100000 Medical equipments 2021-04-16
2021/S 074-187031 Contract award notice Zagreb 09321000 Hot water 2021-04-16
2021/S 074-189180 Contract award notice Zagreb 72267100 Maintenance of information technology software 2021-04-16
2021/S 074-187473 Additional information Pula 39150000 Miscellaneous furniture and equipment 2021-04-16
2021/S 074-188997 Contract award notice Zagreb 72540000 Computer upgrade services 2021-04-16
2021/S 074-187250 Contract award notice Čakovec 15800000 Miscellaneous food products 2021-04-16
2021/S 074-189179 Contract award notice Osijek 66114000 Financial leasing services 2021-04-16
2021/S 073-185008 Additional information Zagreb 33696500 Laboratory reagents 2021-04-15
2021/S 072-183306 Contract award notice Zagreb 38510000 Microscopes 2021-04-14
2021/S 072-183304 Contract award notice Slavonski Brod 33690000 Various medicinal products 2021-04-14
2021/S 072-184634 Contract award notice Zagreb 31730000 Electrotechnical equipment 2021-04-14
2021/S 072-182669 Additional information Koprivnica 45222100 Waste-treatment plant construction work 2021-04-14
2021/S 072-183407 Additional information Zagreb 39100000 Furniture 2021-04-14
2021/S 072-184404 Additional information Rijeka 90900000 Cleaning and sanitation services 2021-04-14
2021/S 072-184747 Contract award notice Zagreb 72000000 IT services: consulting, software development, Internet and support 2021-04-14
2021/S 072-183307 Contract award notice Samobor 44113620 Asphalt 2021-04-14
2021/S 072-183408 Additional information Zagreb 33168000 Endoscopy, endosurgery devices 2021-04-14
2021/S 072-183308 Contract award notice Prelog 42900000 Miscellaneous general and special-purpose machinery 2021-04-14
2021/S 072-183322 Contract award notice Zagreb 33696500 Laboratory reagents 2021-04-14
2021/S 071-181824 Contract award notice Zagreb 71247000 Supervision of building work 2021-04-13
2021/S 071-182214 Contract award notice Zagreb 90911000 Accommodation, building and window cleaning services 2021-04-13
2021/S 071-182048 Contract award notice Novi Vinodolski 45232421 Sewage treatment works 2021-04-13
2021/S 071-181793 Contract award notice Zagreb 50324100 System maintenance services 2021-04-13
2021/S 071-182046 Contract award notice Zagreb 45232220 Substation construction work 2021-04-13
2021/S 071-181786 Contract award notice Zagreb 71355000 Surveying services 2021-04-13
2021/S 071-180869 Contract award notice Zagreb 44111000 Building materials 2021-04-13
2021/S 071-182060 Additional information Kutina 45252100 Sewage-treatment plant construction work 2021-04-13
2021/S 071-180985 Additional information Koprivnica 09310000 Electricity 2021-04-13
2021/S 071-182141 Additional information Zagreb 31681000 Electrical accessories 2021-04-13
2021/S 071-181014 Additional information Šibenik 32322000 Multimedia equipment 2021-04-13
2021/S 071-180102 Additional information Zagreb 45233000 Construction, foundation and surface works for highways, roads 2021-04-13
2021/S 071-180979 Additional information Gospić/Gospić 31500000 Lighting equipment and electric lamps 2021-04-13
2021/S 071-180087 Additional information Orahovica 45232460 Recreation centre construction work 2021-04-13
2021/S 070-178215 Contract award notice Zagreb 24000000 Chemical products 2021-04-12
2021/S 070-179467 Contract award notice Pula 34142000 Crane and dumper trucks 2021-04-12
2021/S 070-178203 Contract award notice Sisak 33181000 Renal support devices 2021-04-12
2021/S 070-178214 Contract award notice Zagreb 03419000 Timber 2021-04-12
2021/S 070-179111 Contract award notice Šibenik 71247000 Supervision of building work 2021-04-12
2021/S 070-179393 Additional information Zagreb 45112500 Railway construction works 2021-04-12
2021/S 070-179116 Contract award notice Zagreb 71355000 Surveying services 2021-04-12
2021/S 070-178336 Additional information Sisak 30230000 Electrotechnical equipment 2021-04-12
2021/S 070-177513 Additional information Sisak 45000000 Construction work 2021-04-12
2021/S 070-179552 Contract award notice Zagreb 72267000 Software maintenance and repair services 2021-04-12
2021/S 070-179096 Contract award notice Koprivnica 79410000 Business and management consultancy services 2021-04-12
2021/S 070-178335 Additional information Zagreb 48000000 Software package and information systems 2021-04-12
2021/S 069-175303 Contract award notice Zagreb 32420000 Network equipment 2021-04-09
2021/S 069-175315 Contract award notice Zadar 33140000 Medical consumables 2021-04-09
2021/S 069-176360 Contract award notice Krk 72224000 Project management consultancy services 2021-04-09
2021/S 069-175305 Contract award notice Zagreb 33690000 Various medicinal products 2021-04-09
2021/S 069-175300 Contract award notice Zagreb 33140000 Medical consumables 2021-04-09
2021/S 069-175304 Contract award notice Zagreb 44812320 Signboard painters' colours 2021-04-09
2021/S 069-176851 Contract award notice Osijek 34430000 Bicycles 2021-04-09
2021/S 069-174492 Additional information Zagreb 45214640 Meteorological stations construction work 2021-04-09
2021/S 069-175480 Additional information Makarska 48211000 Multimedia equipment 2021-04-09
2021/S 069-175301 Contract award notice Rijeka 44613700 Refuse skips 2021-04-09
2021/S 069-176850 Contract award notice Split 09310000 Electricity 2021-04-09
2021/S 069-176684 Contract award notice Zagreb 79710000 Security services 2021-04-09
2021/S 069-175302 Contract award notice Zagreb 33696500 Laboratory reagents 2021-04-09
2021/S 069-176361 Contract award notice Rijeka 50421000 Repair and maintenance services of medical equipment 2021-04-09
2021/S 069-175481 Additional information Zagreb 15890000 Miscellaneous food products and dried goods 2021-04-09
2021/S 067-173175 Contract award notice Zagreb 42962000 Printing and graphics equipment 2021-04-07
2021/S 067-173174 Contract award notice Zagreb 33690000 Various medicinal products 2021-04-07